Year,Month,Day,Hour,Minute,Value (Times are PST for temperature in C)
2009,05,04,08,17,10.00
2009,05,04,08,18,10.00
2009,05,04,08,19,10.00
2009,05,04,08,20,10.00
2009,05,04,08,21,10.00
2009,05,04,08,22,10.00
2009,05,04,08,23,10.00
2009,05,04,08,24,10.00
2009,05,04,08,25,10.00
2009,05,04,08,26,10.00
2009,05,04,08,27,10.00
2009,05,04,08,28,10.10
2009,05,04,08,29,10.10
2009,05,04,08,30,10.10
2009,05,04,08,31,10.10
2009,05,04,08,32,10.10
2009,05,04,08,33,10.10
2009,05,04,08,34,10.10
2009,05,04,08,35,10.10
2009,05,04,08,36,10.10
2009,05,04,08,37,10.20
2009,05,04,08,38,10.20
2009,05,04,08,39,10.20
2009,05,04,08,40,10.20
2009,05,04,08,41,10.20
2009,05,04,08,42,10.20
2009,05,04,08,43,10.20
2009,05,04,08,44,10.20
2009,05,04,08,45,10.20
2009,05,04,08,46,10.20
2009,05,04,08,47,10.20
2009,05,04,08,48,10.20
2009,05,04,08,49,10.20
2009,05,04,08,50,10.20
2009,05,04,08,51,10.20
2009,05,04,08,52,10.20
2009,05,04,08,53,10.20
2009,05,04,08,54,10.20
2009,05,04,08,55,10.20
2009,05,04,08,56,10.20
2009,05,04,08,57,10.20
2009,05,04,08,58,10.20
2009,05,04,08,59,10.20
2009,05,04,09,00,10.20
2009,05,04,09,01,10.20
2009,05,04,09,02,10.20
2009,05,04,09,03,10.20
2009,05,04,09,04,10.20
2009,05,04,09,05,10.20
2009,05,04,09,06,10.30
2009,05,04,09,07,10.30
2009,05,04,09,08,10.30
2009,05,04,09,09,10.30
2009,05,04,09,10,10.30
2009,05,04,09,11,10.30
2009,05,04,09,12,10.30
2009,05,04,09,13,10.30
2009,05,04,09,14,10.30
2009,05,04,09,15,10.30
2009,05,04,09,16,10.30
2009,05,04,09,17,10.30
2009,05,04,09,18,10.30
2009,05,04,09,19,10.30
2009,05,04,09,20,10.40
2009,05,04,09,21,10.40
2009,05,04,09,22,10.40
2009,05,04,09,23,10.40
2009,05,04,09,24,10.50
2009,05,04,09,25,10.50
2009,05,04,09,26,10.50
2009,05,04,09,27,10.50
2009,05,04,09,28,10.50
2009,05,04,09,29,10.50
2009,05,04,09,30,10.50
2009,05,04,09,31,10.50
2009,05,04,09,32,10.50
2009,05,04,09,33,10.50
2009,05,04,09,34,10.50
2009,05,04,09,35,10.50
2009,05,04,09,36,10.50
2009,05,04,09,37,10.50
2009,05,04,09,38,10.50
2009,05,04,09,39,10.60
2009,05,04,09,40,10.60
2009,05,04,09,41,10.60
2009,05,04,09,42,10.70
2009,05,04,09,43,10.70
2009,05,04,09,44,10.70
2009,05,04,09,45,10.80
2009,05,04,09,46,10.80
2009,05,04,09,47,10.80
2009,05,04,09,48,10.90
2009,05,04,09,49,11.00
2009,05,04,09,50,11.10
2009,05,04,09,51,11.20
2009,05,04,09,52,11.20
2009,05,04,09,53,11.20
2009,05,04,09,54,11.20
2009,05,04,09,55,11.20
2009,05,04,09,56,11.20
2009,05,04,09,57,11.20
2009,05,04,09,58,11.20
2009,05,04,09,59,11.20
2009,05,04,10,00,11.20
2009,05,04,10,01,11.20
2009,05,04,10,02,11.20
2009,05,04,10,03,11.20
2009,05,04,10,04,11.20
2009,05,04,10,05,11.20
2009,05,04,10,06,11.20
2009,05,04,10,07,11.30
2009,05,04,10,08,11.30
2009,05,04,10,09,11.30
2009,05,04,10,10,11.30
2009,05,04,10,11,11.30
2009,05,04,10,12,11.30
2009,05,04,10,13,11.20
2009,05,04,10,14,11.20
2009,05,04,10,15,11.20
2009,05,04,10,16,11.20
2009,05,04,10,17,11.20
2009,05,04,10,18,11.20
2009,05,04,10,19,11.20
2009,05,04,10,20,11.20
2009,05,04,10,21,11.20
2009,05,04,10,22,11.20
2009,05,04,10,23,11.20
2009,05,04,10,24,11.10
2009,05,04,10,25,11.10
2009,05,04,10,26,11.10
2009,05,04,10,27,11.10
2009,05,04,10,28,11.10
2009,05,04,10,29,11.10
2009,05,04,10,30,11.10
2009,05,04,10,31,11.10
2009,05,04,10,32,11.10
2009,05,04,10,33,11.20
2009,05,04,10,34,11.20
2009,05,04,10,35,11.20
2009,05,04,10,36,11.20
2009,05,04,10,37,11.20
2009,05,04,10,38,11.20
2009,05,04,10,39,11.20
2009,05,04,10,40,11.20
2009,05,04,10,41,11.10
2009,05,04,10,42,11.10
2009,05,04,10,43,11.10
2009,05,04,10,44,11.10
2009,05,04,10,45,11.10
2009,05,04,10,46,11.10
2009,05,04,10,47,11.10
2009,05,04,10,48,11.10
2009,05,04,10,49,11.10
2009,05,04,10,50,11.10
2009,05,04,10,51,11.20
2009,05,04,10,52,11.20
2009,05,04,10,53,11.30
2009,05,04,10,54,11.30
2009,05,04,10,55,11.30
2009,05,04,10,56,11.30
2009,05,04,10,57,11.30
2009,05,04,10,58,11.30
2009,05,04,10,59,11.30
2009,05,04,11,00,11.30
2009,05,04,11,01,11.30
2009,05,04,11,02,11.40
2009,05,04,11,03,11.40
2009,05,04,11,04,11.40
2009,05,04,11,05,11.40
2009,05,04,11,06,11.40
2009,05,04,11,07,11.40
2009,05,04,11,08,11.50
2009,05,04,11,09,11.50
2009,05,04,11,10,11.50
2009,05,04,11,11,11.40
2009,05,04,11,12,11.40
2009,05,04,11,13,11.50
2009,05,04,11,14,11.60
2009,05,04,11,15,11.60
2009,05,04,11,16,11.70
2009,05,04,11,17,11.70
2009,05,04,11,18,11.70
2009,05,04,11,19,11.70
2009,05,04,11,20,11.70
2009,05,04,11,21,11.70
2009,05,04,11,22,11.80
2009,05,04,11,23,11.80
2009,05,04,11,24,11.80
2009,05,04,11,25,11.80
2009,05,04,11,26,11.80
2009,05,04,11,27,11.90
2009,05,04,11,28,11.90
2009,05,04,11,29,11.90
2009,05,04,11,30,12.00
2009,05,04,11,31,12.00
2009,05,04,11,32,12.10
2009,05,04,11,33,12.10
2009,05,04,11,34,12.00
2009,05,04,11,35,12.00
2009,05,04,11,36,12.00
2009,05,04,11,37,12.00
2009,05,04,11,38,12.10
2009,05,04,11,39,12.20
2009,05,04,11,40,12.20
2009,05,04,11,41,12.20
2009,05,04,11,42,12.30
2009,05,04,11,43,12.30
2009,05,04,11,44,12.40
2009,05,04,11,45,12.30
2009,05,04,11,46,12.30
2009,05,04,11,47,12.20
2009,05,04,11,48,12.20
2009,05,04,11,49,12.30
2009,05,04,11,50,12.40
2009,05,04,11,51,12.40
2009,05,04,11,52,12.40
2009,05,04,11,53,12.40
2009,05,04,11,54,12.40
2009,05,04,11,55,12.40
2009,05,04,11,56,12.30
2009,05,04,11,57,12.30
2009,05,04,11,58,12.30
2009,05,04,11,59,12.30
2009,05,04,12,00,12.40
2009,05,04,12,01,12.40
2009,05,04,12,02,12.50
2009,05,04,12,03,12.50
2009,05,04,12,04,12.50
2009,05,04,12,05,12.50
2009,05,04,12,06,12.40
2009,05,04,12,07,12.40
2009,05,04,12,08,12.40
2009,05,04,12,09,12.40
2009,05,04,12,10,12.50
2009,05,04,12,11,12.60
2009,05,04,12,12,12.70
2009,05,04,12,13,12.70
2009,05,04,12,14,12.70
2009,05,04,12,15,12.70
2009,05,04,12,16,12.80
2009,05,04,12,17,12.80
2009,05,04,12,18,12.80
2009,05,04,12,19,12.80
2009,05,04,12,20,12.90
2009,05,04,12,21,12.90
2009,05,04,12,22,12.80
2009,05,04,12,23,12.80
2009,05,04,12,24,12.80
2009,05,04,12,25,12.80
2009,05,04,12,26,12.70
2009,05,04,12,27,12.70
2009,05,04,12,28,12.70
2009,05,04,12,29,12.70
2009,05,04,12,30,12.70
2009,05,04,12,31,12.70
2009,05,04,12,32,12.70
2009,05,04,12,33,12.70
2009,05,04,12,34,12.70
2009,05,04,12,35,12.70
2009,05,04,12,36,12.70
2009,05,04,12,37,12.70
2009,05,04,12,38,12.70
2009,05,04,12,39,12.70
2009,05,04,12,40,12.70
2009,05,04,12,41,12.80
2009,05,04,12,42,12.90
2009,05,04,12,43,13.00
2009,05,04,12,44,13.00
2009,05,04,12,45,13.00
2009,05,04,12,46,13.00
2009,05,04,12,47,13.00
2009,05,04,12,48,12.90
2009,05,04,12,49,12.80
2009,05,04,12,50,12.80
2009,05,04,12,51,12.80
2009,05,04,12,52,12.80
2009,05,04,12,53,12.90
2009,05,04,12,54,12.80
2009,05,04,12,55,12.80
2009,05,04,12,56,12.80
2009,05,04,12,57,12.80
2009,05,04,12,58,12.80
2009,05,04,12,59,12.80
2009,05,04,13,00,12.70
2009,05,04,13,01,12.70
2009,05,04,13,02,12.70
2009,05,04,13,03,12.70
2009,05,04,13,04,12.70
2009,05,04,13,05,12.70
2009,05,04,13,06,12.70
2009,05,04,13,07,12.70
2009,05,04,13,08,12.70
2009,05,04,13,09,12.70
2009,05,04,13,10,12.80
2009,05,04,13,11,12.80
2009,05,04,13,12,12.70
2009,05,04,13,13,12.70
2009,05,04,13,14,12.80
2009,05,04,13,15,12.80
2009,05,04,13,16,12.70
2009,05,04,13,17,12.80
2009,05,04,13,18,12.80
2009,05,04,13,19,12.80
2009,05,04,13,20,12.80
2009,05,04,13,21,12.80
2009,05,04,13,22,12.80
2009,05,04,13,23,12.80
2009,05,04,13,24,12.80
2009,05,04,13,25,12.80
2009,05,04,13,26,12.90
2009,05,04,13,27,12.90
2009,05,04,13,28,12.90
2009,05,04,13,29,12.90
2009,05,04,13,30,12.80
2009,05,04,13,31,12.80
2009,05,04,13,32,12.80
2009,05,04,13,33,12.80
2009,05,04,13,34,12.80
2009,05,04,13,35,12.80
2009,05,04,13,36,12.70
2009,05,04,13,37,12.70
2009,05,04,13,38,12.70
2009,05,04,13,39,12.70
2009,05,04,13,40,12.80
2009,05,04,13,41,12.80
2009,05,04,13,42,12.80
2009,05,04,13,43,12.80
2009,05,04,13,44,12.80
2009,05,04,13,45,12.80
2009,05,04,13,46,12.70
2009,05,04,13,47,12.70
2009,05,04,13,48,12.70
2009,05,04,13,49,12.80
2009,05,04,13,50,12.80
2009,05,04,13,51,12.80
2009,05,04,13,52,12.80
2009,05,04,13,53,12.80
2009,05,04,13,54,12.80
2009,05,04,13,55,12.90
2009,05,04,13,56,12.90
2009,05,04,13,57,12.90
2009,05,04,13,58,12.80
2009,05,04,13,59,12.90
2009,05,04,14,00,12.90
2009,05,04,14,01,12.90
2009,05,04,14,02,12.90
2009,05,04,14,03,12.90
2009,05,04,14,04,12.90
2009,05,04,14,05,12.90
2009,05,04,14,06,12.90
2009,05,04,14,07,13.00
2009,05,04,14,08,13.00
2009,05,04,14,09,13.10
2009,05,04,14,10,13.10
2009,05,04,14,11,13.10
2009,05,04,14,12,13.10
2009,05,04,14,13,13.20
2009,05,04,14,14,13.10
2009,05,04,14,15,13.10
2009,05,04,14,16,13.20
2009,05,04,14,17,13.20
2009,05,04,14,18,13.20
2009,05,04,14,19,13.20
2009,05,04,14,20,13.20
2009,05,04,14,21,13.20
2009,05,04,14,22,13.20
2009,05,04,14,23,13.30
2009,05,04,14,24,13.30
2009,05,04,14,25,13.30
2009,05,04,14,26,13.30
2009,05,04,14,27,13.30
2009,05,04,14,28,13.30
2009,05,04,14,29,13.30
2009,05,04,14,30,13.30
2009,05,04,14,31,13.30
2009,05,04,14,32,13.30
2009,05,04,14,33,13.30
2009,05,04,14,34,13.30
2009,05,04,14,35,13.40
2009,05,04,14,36,13.50
2009,05,04,14,37,13.50
2009,05,04,14,38,13.50
2009,05,04,14,39,13.50
2009,05,04,14,40,13.50
2009,05,04,14,41,13.40
2009,05,04,14,42,13.40
2009,05,04,14,43,13.40
2009,05,04,14,44,13.40
2009,05,04,14,45,13.50
2009,05,04,14,46,13.50
2009,05,04,14,47,13.50
2009,05,04,14,48,13.50
2009,05,04,14,49,13.50
2009,05,04,14,50,13.50
2009,05,04,14,51,13.50
2009,05,04,14,52,13.50
2009,05,04,14,53,13.50
2009,05,04,14,54,13.30
2009,05,04,14,55,13.10
2009,05,04,14,56,13.00
2009,05,04,14,57,12.90
2009,05,04,14,58,12.90
2009,05,04,14,59,12.90
2009,05,04,15,00,12.80
2009,05,04,15,01,12.80
2009,05,04,15,02,12.80
2009,05,04,15,03,12.80
2009,05,04,15,04,12.80
2009,05,04,15,05,12.80
2009,05,04,15,06,12.80
2009,05,04,15,07,12.80
2009,05,04,15,08,12.80
2009,05,04,15,09,12.80
2009,05,04,15,10,12.90
2009,05,04,15,11,12.80
2009,05,04,15,12,12.80
2009,05,04,15,13,12.90
2009,05,04,15,14,12.90
2009,05,04,15,15,13.00
2009,05,04,15,16,13.00
2009,05,04,15,17,13.10
2009,05,04,15,18,13.10
2009,05,04,15,19,13.10
2009,05,04,15,20,13.10
2009,05,04,15,21,13.20
2009,05,04,15,22,13.20
2009,05,04,15,23,13.20
2009,05,04,15,24,13.20
2009,05,04,15,25,13.30
2009,05,04,15,26,13.30
2009,05,04,15,27,13.30
2009,05,04,15,28,13.30
2009,05,04,15,29,13.30
2009,05,04,15,30,13.30
2009,05,04,15,31,13.30
2009,05,04,15,32,13.30
2009,05,04,15,33,13.30
2009,05,04,15,34,13.30
2009,05,04,15,35,13.30
2009,05,04,15,36,13.30
2009,05,04,15,37,13.30
2009,05,04,15,38,13.30
2009,05,04,15,39,13.30
2009,05,04,15,40,13.30
2009,05,04,15,41,13.30
2009,05,04,15,42,13.30
2009,05,04,15,43,13.30
2009,05,04,15,44,13.30
2009,05,04,15,45,13.30
2009,05,04,15,46,13.30
2009,05,04,15,47,13.30
2009,05,04,15,48,13.30
2009,05,04,15,49,13.40
2009,05,04,15,50,13.40
2009,05,04,15,51,13.30
2009,05,04,15,52,13.30
2009,05,04,15,53,13.30
2009,05,04,15,54,13.30
2009,05,04,15,55,13.30
2009,05,04,15,56,13.30
2009,05,04,15,57,13.30
2009,05,04,15,58,13.30
2009,05,04,15,59,13.30
2009,05,04,16,00,13.30
2009,05,04,16,01,13.30
2009,05,04,16,02,13.30
2009,05,04,16,03,13.30
2009,05,04,16,04,13.30
2009,05,04,16,05,13.30
2009,05,04,16,06,13.30
2009,05,04,16,07,13.30
2009,05,04,16,08,13.30
2009,05,04,16,09,13.40
2009,05,04,16,10,13.30
2009,05,04,16,11,13.30
2009,05,04,16,12,13.30
2009,05,04,16,13,13.30
2009,05,04,16,14,13.30
2009,05,04,16,15,13.30
2009,05,04,16,16,13.30
2009,05,04,16,17,13.40
2009,05,04,16,18,13.40
2009,05,04,16,19,13.40
2009,05,04,16,20,13.40
2009,05,04,16,21,13.40
2009,05,04,16,22,13.30
2009,05,04,16,23,13.30
2009,05,04,16,24,13.30
2009,05,04,16,25,13.40
2009,05,04,16,26,13.40
2009,05,04,16,27,13.40
2009,05,04,16,28,13.40
2009,05,04,16,29,13.40
2009,05,04,16,30,13.40
2009,05,04,16,31,13.50
2009,05,04,16,32,13.40
2009,05,04,16,33,13.50
2009,05,04,16,34,13.50
2009,05,04,16,35,13.50
2009,05,04,16,36,13.50
2009,05,04,16,37,13.40
2009,05,04,16,38,13.40
2009,05,04,16,39,13.40
2009,05,04,16,40,13.40
2009,05,04,16,41,13.50
2009,05,04,16,42,13.50
2009,05,04,16,43,13.50
2009,05,04,16,44,13.60
2009,05,04,16,45,13.60
2009,05,04,16,46,13.60
2009,05,04,16,47,13.60
2009,05,04,16,48,13.60
2009,05,04,16,49,13.60
2009,05,04,16,50,13.70
2009,05,04,16,51,13.70
2009,05,04,16,52,13.70
2009,05,04,16,53,13.70
2009,05,04,16,54,13.70
2009,05,04,16,55,13.70
2009,05,04,16,56,13.70
2009,05,04,16,57,13.70
2009,05,04,16,58,13.70
2009,05,04,16,59,13.70
2009,05,04,17,00,13.70
2009,05,04,17,01,13.70
2009,05,04,17,02,13.70
2009,05,04,17,03,13.70
2009,05,04,17,04,13.70
2009,05,04,17,05,13.70
2009,05,04,17,06,13.70
2009,05,04,17,07,13.80
2009,05,04,17,08,13.80
2009,05,04,17,09,13.80
2009,05,04,17,10,13.80
2009,05,04,17,11,13.80
2009,05,04,17,12,13.80
2009,05,04,17,13,13.80
2009,05,04,17,14,13.80
2009,05,04,17,15,13.80
2009,05,04,17,16,13.80
2009,05,04,17,17,13.80
2009,05,04,17,18,13.80
2009,05,04,17,19,13.80
2009,05,04,17,20,13.80
2009,05,04,17,21,13.80
2009,05,04,17,22,13.80
2009,05,04,17,23,13.80
2009,05,04,17,24,13.80
2009,05,04,17,25,13.80
2009,05,04,17,26,13.80
2009,05,04,17,27,13.80
2009,05,04,17,28,13.80
2009,05,04,17,29,13.80
2009,05,04,17,30,13.80
2009,05,04,17,31,13.80
2009,05,04,17,32,13.80
2009,05,04,17,33,13.80
2009,05,04,17,34,13.80
2009,05,04,17,35,13.80
2009,05,04,17,36,13.80
